West Tisbury, MA

1:54 PM EDT on August 27, 2016 (GMT -0400)
Martha's Vineyard

Weather History for KMVY - June, 2013

Change the Weather History Date:

Wednesday, June 12, 2013

  Actual Average Record
Temperature  
Mean Temperature 66 °F -  
Max Temperature 72 °F 73 °F 87 °F (1973)
Min Temperature 55 °F 54 °F 37 °F (2004)
Growing Degree Days 16 (Base 50)    
Moisture  
Dew Point 55 °F    
Average Humidity 73    
Maximum Humidity 96    
Minimum Humidity 53    
Precipitation  
Precipitation 0.00 in - - ()
Sea Level Pressure  
Sea Level Pressure 29.67 in    
Wind  
Wind Speed 9 mph (NW)    
Max Wind Speed 16 mph    
Max Gust Speed 25 mph    
Visibility 10 miles    
Events      
Averages and records for this station are not official NWS values.
T = Trace of Precipitation, MM = Missing Value Source: NWS Daily Summary

Daily Weather History Graph

Daily Weather History Graph

Search for Another Location

Airport or City:

Trip Planner

Search our weather history database for the weather conditions in past years. The results will help you decide how hot, cold, wet, or windy it might be!

Date:

Astronomy

Jun. 12, 2013 Rise Set
Actual Time 5:08 AM EDT 8:16 PM EDT
Civil Twilight 4:34 AM EDT 8:50 PM EDT
Nautical Twilight 3:51 AM EDT 9:33 PM EDT
Astronomical Twilight 2:59 AM EDT 10:25 PM EDT
Moon 8:46 AM EDT (6/12) 10:48 PM EDT (6/12)
Length of Visible Light 16h 15m
Length of Day
15h 08m
Waxing Crescent, 14% of the Moon is Illuminated
Jun 12
Waxing Crescent
Jun 16
First Quarter
Jun 23
Full
Jun 30
Last Quarter
Jul 8
New

Hourly Weather History & Observations

Time (EDT) Temp. Dew Point Humidity Pressure Visibility Wind Dir Wind Speed Gust Speed Precip Events Conditions
12:49 AM 60.8 °F 59.0 °F 94% 29.60 in 10.0 mi NW 4.6 mph - N/A   Overcast
12:53 AM 60.1 °F 59.0 °F 96% 29.60 in 10.0 mi NW 3.5 mph - N/A   Overcast
1:53 AM 60.1 °F 57.9 °F 93% 29.59 in 10.0 mi West 4.6 mph - N/A   Overcast
2:53 AM 63.0 °F 55.9 °F 78% 29.59 in 10.0 mi WNW 10.4 mph - N/A   Clear
3:53 AM 62.1 °F 55.0 °F 78% 29.59 in 10.0 mi West 10.4 mph 18.4 mph N/A   Clear
4:53 AM 62.1 °F 55.0 °F 78% 29.60 in 10.0 mi West 11.5 mph 24.2 mph N/A   Clear
5:53 AM 62.1 °F 54.0 °F 75% 29.61 in 10.0 mi West 11.5 mph 21.9 mph N/A   Mostly Cloudy
6:53 AM 62.1 °F 54.0 °F 75% 29.62 in 10.0 mi West 16.1 mph 23.0 mph N/A   Scattered Clouds
7:53 AM 64.0 °F 55.0 °F 73% 29.63 in 10.0 mi WNW 16.1 mph 23.0 mph N/A   Mostly Cloudy
8:53 AM 66.0 °F 55.0 °F 68% 29.63 in 10.0 mi WNW 15.0 mph 21.9 mph N/A   Clear
9:53 AM 64.9 °F 55.0 °F 70% 29.62 in 10.0 mi WNW 10.4 mph 20.7 mph N/A   Overcast
10:53 AM 66.9 °F 54.0 °F 63% 29.63 in 10.0 mi WNW 11.5 mph 24.2 mph N/A   Overcast
11:53 AM 68.0 °F 54.0 °F 61% 29.64 in 10.0 mi WNW 13.8 mph - N/A   Overcast
12:53 PM 69.1 °F 52.0 °F 54% 29.65 in 10.0 mi WNW 13.8 mph 23.0 mph N/A   Overcast
1:53 PM 68.0 °F 53.1 °F 59% 29.65 in 10.0 mi NNW 11.5 mph 19.6 mph N/A   Overcast
2:53 PM 70.0 °F 54.0 °F 57% 29.67 in 10.0 mi WNW 12.7 mph 20.7 mph N/A   Overcast
3:53 PM 71.1 °F 54.0 °F 55% 29.67 in 10.0 mi WNW 13.8 mph 25.3 mph N/A   Mostly Cloudy
4:53 PM 71.1 °F 53.1 °F 53% 29.68 in 10.0 mi NW 16.1 mph 24.2 mph N/A   Partly Cloudy
5:53 PM 64.9 °F 55.9 °F 73% 29.70 in 10.0 mi NNE 13.8 mph - N/A   Overcast
6:53 PM 64.0 °F 55.0 °F 73% 29.74 in 10.0 mi North 5.8 mph - N/A   Overcast
7:53 PM 64.0 °F 55.0 °F 73% 29.76 in 10.0 mi North 13.8 mph 19.6 mph N/A   Overcast
8:53 PM 63.0 °F 54.0 °F 72% 29.77 in 10.0 mi North 5.8 mph - N/A   Mostly Cloudy
9:53 PM 63.0 °F 54.0 °F 72% 29.81 in 10.0 mi North 10.4 mph - N/A   Overcast
10:53 PM 60.1 °F 54.0 °F 80% 29.80 in 10.0 mi NW 3.5 mph - N/A   Mostly Cloudy
11:53 PM 55.9 °F 53.1 °F 90% 29.80 in 10.0 mi Calm Calm - N/A   Partly Cloudy